www.pogodaiklimat.ru

Погода и климат >> Архив погоды >> Россия >> Приморский край >> Лазо


ПОГОДА в Лазо

  • Прогноз погоды в Лазо
  • Монитор погоды в Лазо

АРХИВ ПОГОДЫ в Лазо

Время (UTC), дата Ветер
(напр.,м/с)
 
Видим.   Явления Облачность Т
(С)
Тd
(С)
f
(%)
Тe
(С)
Тes
(С)
Комфортность P
(гПа)
Po
(гПа)
Тmin
(С)
Tmax
(С)
R
(мм)
R24
(мм)
S
(см)
00 16.04 штиль 0
{3}
50 км ясно +9.1 -5.0 37 +9 +21 опасность
простуды
1011.8 982.3 -3.9
03 16.04 ЮЗ 3 50 км ясно +20.1 -1.7 23 +20 +34 опасность
простуды
1008.2 980.0
06 16.04 ЮЗ 2 50 км 2 балла +22.7 -2.8 18 +21 +29 комфорт 1005.2 977.3
09 16.04 ЮЗ 2 50 км 3/0
[Ci fib]
+18.6 -6.9 17 +19 +19 1005.6 977.3 +23.0
12 16.04 С 2
{9}
50 км ясно +9.6 -5.9 33 +9 +9 1010.6 981.3
15 16.04 штиль 0 50 км ясно +2.8 -4.2 60 +2 +2 1011.4 981.3
18 16.04 СЗ 2 50 км ясно +1.4 -5.5 60 -1 -1 1011.5 981.3
21 16.04 штиль 0 50 км ясно -1.1 -5.3 73 -2 -2 1011.8 981.3 -1.6
00 17.04 СЗ 1
{4}
50 км ясно +13.2 -4.3 29 +14 +24 1008.2 979.2
03 17.04 ЮЗ 2 50 км ясно +24.1 -10.8 9 +21 +38 комфорт 1005.1 977.3
06 17.04 ЮЗ 3 50 км ясно +25.6 -7.1 11 +23 +31 комфорт 1002.3 974.7
09 17.04 Ю 3 50 км 9/0
[As trans Cc]
+18.0 -4.7 21 +18 +18 1003.0 974.7 +26.1
12 17.04 штиль 0
{9}
50 км 3/0
[Ci fib]
+10.5 -1.7 43 +10 +10 1005.6 976.3
15 17.04 С 1 50 км 7 баллов +5.3 -2.3 58 +5 +5 1007.0 977.3
18 17.04 С 1 50 км 9 баллов +3.7 -2.9 62 +3 +3 1004.5 974.7
21 17.04 С 1 50 км 10/0
[As op]
+5.2 -3.3 54 +5 +5 1004.3 974.7 +3.2
00 18.04 СЗ 1
{4}
50 км 9/0
[As trans]
+10.6 -3.5 37 +11 +12 1002.3 973.3
03 18.04 Ю 1 10 км слаб. дождь 10 баллов +8.2 +5.3 82 +7 +7 1002.5 973.3
06 18.04 СЗ 6-11
{14}
50 км {дождь} 8/8 840 м
[Cb cap]
+9.7 +1.6 57 +7 +8 1003.8 974.7
09 18.04 СЗ 5
{12}
50 км 8/8 840 м
[Cb cap]
+7.9 -5.5 38 +5 +5 1006.7 977.3 +12.3 2
12 18.04 СЗ 2
{14}
50 км 4/4 600 м
[Cu hum]
+4.0 -5.5 50 +2 +2 1010.7 980.6
15 18.04 С 2 50 км 2 балла +2.2 -6.4 53 -0 -0 1012.9 982.7
21 18.04 З 4 50 км ясно +2.1 -12.9 32 -2 -2 1014.1 983.7 +0.8
00 19.04 СЗ 4
{12}
50 км ясно +6.4 -13.6 22 +4 +10 1013.3 983.4
03 19.04 З 6 50 км ясно +10.4 -12.2 19 +8 +14 1013.4 984.0
06 19.04 СЗ 6 50 км ясно +12.2 -15.4 13 +10 +14 1010.4 981.3
09 19.04 СЗ 4
{15}
50 км ясно +11.0 -17.3 12 +9 +10 1010.5 981.3 +12.7
12 19.04 С 1 50 км ясно +5.1 -17.3 18 +5 +5 1015.3 985.3
15 19.04 штиль 0 50 км ясно -1.0 -12.9 40 -1 -1 1015.9 985.3
18 19.04 штиль 0 50 км ясно -2.3 -13.2 43 -3 -3 1016.1 985.3
21 19.04 СВ 1 50 км 4/0
[Ci fib]
-2.5 -11.3 51 -4 -4 1015.6 984.7 -3.6
00 20.04 ЮЗ 1 50 км 8/0
[Ci fib]
+7.7 -12.4 23 +8 +17 1014.2 984.4
03 20.04 ЮЗ 2 50 км 7 баллов +14.3 -14.7 12 +14 +19 1011.6 982.7
06 20.04 ЮЗ 2 50 км 10 баллов +17.7 -14.3 10 +18 +18 1008.5 980.0
09 20.04 Ю 3 50 км 10/0
[As op]
+12.5 -10.5 19 +12 +12 1009.0 980.0 +17.7
12 20.04 ЮЗ 1 50 км 10/0
[As op]
+6.3 -1.0 60 +6 +6 1010.5 980.8
15 20.04 С 1 50 км 6 баллов +2.4 -2.3 71 +1 +1 1012.9 982.7
18 20.04 СЗ 1 50 км 7 баллов +2.6 -3.1 66 +1 +1 1011.4 981.3
21 20.04 СВ 1 50 км 8/8 840 м
[Sc]
+2.1 -2.2 73 +1 +1 1011.4 981.1 +1.5
00 21.04 С 3 50 км ясно +13.3 -4.0 30 +13 +20 1010.9 981.8
03 21.04 З 2 50 км 7 баллов +16.4 -15.3 10 +17 +22 1010.0 981.3
06 21.04 СЗ 5 50 км 7 баллов +16.4 -18.0 8 +16 +17 1010.0 981.3
09 21.04 СЗ 2 50 км ясно +13.4 -17.6 10 +13 +14 1010.3 981.3 +17.1
12 21.04 С 1 50 км ясно +4.9 -11.6 29 +5 +5 1013.9 984.0
15 21.04 С 1 50 км ясно +1.0 -10.5 42 0 0 1017.2 986.7
18 21.04 штиль 0 50 км ясно -1.9 -10.2 53 -2 -2 1018.8 988.0
21 21.04 С 1 50 км ясно -3.0 -10.1 58 -5 -4 1018.6 987.5 -3.9
00 22.04 С 1 50 км ясно +10.7 -10.3 22 +11 +22 опасность
простуды
1017.8 988.2
03 22.04 СЗ 2 50 км ясно +16.6 -14.0 11 +17 +34 опасность
простуды
1016.8 988.0
06 22.04 С 2 50 км 4 балла +18.1 -16.7 8 +19 +25 1015.4 986.7
09 22.04 ЮЗ 3 50 км 4/0
[Cs]
+14.4 -13.7 13 +14 +14 1015.7 986.7 +19.0
12 22.04 штиль 0 50 км ясно +7.6 -11.2 25 +8 +8 1019.1 989.3
15 22.04 штиль 0 50 км 7 баллов +3.4 -8.6 41 +3 +3 1019.6 989.3
21 22.04 З 1 50 км 8/8 840 м
[Sc]
+4.1 -4.5 53 +3 +3 1015.1 985.0 +3.4

 

Местоположение метеостанции Лазо (Приморский край, Россия): широта 43.40 долгота 133.80 высота над уровнем моря 245 м.

В архиве по умолчанию представлена погода в Лазо за последнюю неделю. Архивные данные за месяц целиком и за предыдущие месяцы, начиная с января 2011 года, Вы можете получить, выбрав интересующий диапазон дат из раскрывающегося списка и нажав кнопку "Ввод!".


*Определитесь, кто Вы:
робот инопланетянин человек

Внимание! Время в таблицах - всемирное. Для получения местного времени необходимо прибавить поправку, которая равна 10 ч.

Смотрите также архив погоды в соседних городах и на ближайших метеорологических станциях:

Погода в Лучегорске (Приморский край, Россия) (47 км)
Погода в Преображении (Приморский край, Россия) (56 км)
Погода в Партизанске (Приморский край, Россия) (71 км)
Погода в Чугуевке (Приморский край, Россия) (83 км)
Погода в Анучино (Приморский край, Россия) (90 км)
Погода в Находке (Приморский край, Россия) (105 км)
Погода в Многоудобном (Приморский край, Россия) (108 км)
Погода в Ольге (Приморский край, Россия) (127 км)
Погода в Кавалерово (Приморский край, Россия) (135 км)
Погода в Дальнегорске (Приморский край, Россия) (144 км)

Пояснения к столбцам:

Ветер - указаны скорость ветра в м/с - средняя за 10 мин, порывы в срок и между сроками (в фигурных скобках) и направление, откуда дует ветер: С - северный, СВ - северо-восточный, В - восточный, ЮВ - юго-восточный, Ю - южный, ЮЗ - юго-западный, З - западный, СЗ - северо-западный.
Видимость - горизонтальная дальность видимости в метрах или километрах. При видимости от 1 до 10 км при отсутствии осадков обычно наблюдается дымка, при ухудшении видимости до 1 км и менее - туман. В сухую погоду видимость может ухудшаться дымом, пылью или мглою.
Явления - указаны атмосферные явления, наблюдавшиеся в срок или в последний час перед сроком; фигурными скобками обозначены явления, наблюдавшиеся между сроками (за 1-3 часа до срока); квадратными скобками обозначены град или гололедные отложения с указанием их диаметра в мм.
Облачность - указаны через наклонную черту общая и нижняя облачность в баллах и высота нижней границы облаков в метрах; квадратными скобками обозначены формы облаков: Ci - перистые, Cs - перисто-слоистые, Cc - перисто-кучевые, Ac - высококучевые, As - высокослоистые, Sc - слоисто-кучевые, Ns - слоисто-дождевые, Cu - кучевые, Cb - кучево-дождевые. Подробнее классификацию облаков см. в Атласе облаков (PDF).
T - Температура воздуха - температура, измеренная на высоте 2 м над землей.
Td - Температура точки росы - температура, при понижении до которой содержащийся в воздухе водяной пар достигнет насыщения.
f - Относительная влажность воздуха - влажноcть воздуха, измеренная на высоте 2 м над землей.
Te - Эффективная температура - температура, которую ощущает одетый по сезону человек в тени. Характеристика душности погоды. При расчете учитывается влияние влажности воздуха и скорости ветра на теплоощущения человека.
Tes - Эффективная температура на солнце - температура, которую ощущает человек, с поправкой на солнечный нагрев. Характеристика знойности погоды. Зависит от высоты солнца над горизонтом, облачности и скорости ветра. Ночью, в пасмурную погоду, а также при ветре 12 м/с и более поправка равна нулю.
P - Атмосферное давление - приведенное к уровню моря атмосферное давление.
Po - Атмосферное давление - измеренное на уровне метеостанции атмосферное давление.
Tmin - Минимальная температура - минимум температуры воздуха на высоте 2 м над землей.
Tmax - Максимальная температура - максимум температуры воздуха на высоте 2 м над землей.
R - Количество осадков - Количество выпавших осадков за период времени, мм. При наведении курсора мыши на число - период времени, за который выпало указанное количество осадков.
R24 - Количество осадков - Количество выпавших осадков за 24 часа, мм.
S - Снежный покров - Высота снежного покрова, см. При наведении курсора мыши на число - состояние снежного покрова и степень покрытия местности в баллах.